CFG5HC LEPA-EDDH

Flight info

Callsign CFG5HC
Flight time N/A
Altitude 34000
Route MEROS N853 LUMAS/N0450F360 DCT MAXIR DCT LUSOL DCT BODRU DCT OKTET DCT IRMAR DCT KINES DCT VANAS DCT ESOKO DCT GODRA DCT LOKTA DCT TEDGO DCT HAREM DCT LOHRE DCT ELNAT P605 NOLGO NOLGO3P
Aircraft A21N/M-SBDE3FGHIJ1J4J7LORVWXYZ/SB2D1G1

Departure

Time N/A
Airport Palma de Mallorca Airport (LEPA)

Arrival

Time 2026-04-24 20:27
Airport Hamburg Helmut Schmidt Airport (EDDH)
Time Latitude Longitude Altitude Speed Heading
2026-04-24 17:07 39.55056 2.73690 35 ft 0 kts 238°
2026-04-24 18:54 44.04973 6.26823 34117 ft 449 kts 27°
2026-04-24 18:55 44.13401 6.32624 34121 ft 451 kts 26°
2026-04-24 18:56 44.19030 6.36501 34115 ft 451 kts 27°
2026-04-24 18:56 44.24662 6.40386 34112 ft 452 kts 27°
2026-04-24 18:57 44.30304 6.44293 34116 ft 453 kts 27°
2026-04-24 18:57 44.35916 6.48186 34119 ft 452 kts 27°
2026-04-24 18:58 44.41511 6.52081 34114 ft 449 kts 27°
2026-04-24 18:58 44.47122 6.55984 34115 ft 451 kts 27°
2026-04-24 18:59 44.52744 6.59906 34120 ft 452 kts 27°
2026-04-24 18:59 44.58369 6.63838 34121 ft 452 kts 27°
2026-04-24 19:00 44.64001 6.67783 34118 ft 452 kts 27°
2026-04-24 19:00 44.69623 6.71730 34114 ft 452 kts 27°
2026-04-24 19:01 44.74296 6.75022 34115 ft 452 kts 27°
2026-04-24 19:01 44.80101 6.78372 34105 ft 453 kts 13°
2026-04-24 19:01 44.83230 6.78879 34108 ft 455 kts
2026-04-24 19:02 44.86392 6.78738 34114 ft 456 kts 358°
2026-04-24 19:02 44.92726 6.78249 34117 ft 455 kts 357°
2026-04-24 19:03 44.99064 6.77807 34115 ft 456 kts 358°
2026-04-24 19:03 45.05399 6.77388 34124 ft 456 kts 358°
2026-04-24 19:04 45.11734 6.76974 34129 ft 456 kts 358°
2026-04-24 19:04 45.18075 6.76547 34137 ft 456 kts 357°
2026-04-24 19:05 45.24423 6.76125 34146 ft 457 kts 357°
2026-04-24 19:05 45.30783 6.75704 34148 ft 458 kts 357°
2026-04-24 19:06 45.37140 6.75283 34152 ft 457 kts 357°
2026-04-24 19:06 45.43505 6.75085 34154 ft 457 kts
2026-04-24 19:06 45.46621 6.75941 34154 ft 457 kts 18°
2026-04-24 19:07 45.49537 6.77727 34171 ft 457 kts 29°
2026-04-24 19:07 45.55007 6.82326 34172 ft 457 kts 31°
2026-04-24 19:08 45.60471 6.86977 34172 ft 458 kts 31°
2026-04-24 19:08 45.65984 6.91538 34169 ft 458 kts 30°
2026-04-24 19:09 45.71509 6.96089 34144 ft 458 kts 30°
2026-04-24 19:09 45.77012 7.00677 34126 ft 459 kts 30°
2026-04-24 19:10 45.82527 7.05340 34115 ft 461 kts 31°
2026-04-24 19:10 45.88067 7.09992 34116 ft 461 kts 30°
2026-04-24 19:11 45.93551 7.14610 34124 ft 457 kts 31°
2026-04-24 19:11 45.99034 7.19233 34143 ft 457 kts 31°
2026-04-24 19:12 46.04516 7.23897 34134 ft 457 kts 30°
2026-04-24 19:12 46.09997 7.28531 34120 ft 457 kts 31°
2026-04-24 19:13 46.14583 7.32430 34116 ft 457 kts 31°
2026-04-24 19:13 46.20958 7.37884 34115 ft 459 kts 31°
2026-04-24 19:14 46.26435 7.42633 34111 ft 459 kts 31°
2026-04-24 19:14 46.31923 7.47347 34123 ft 459 kts 31°
2026-04-24 19:15 46.37410 7.52084 34161 ft 460 kts 31°
2026-04-24 19:15 46.42919 7.56834 34155 ft 461 kts 31°
2026-04-24 19:16 46.51194 7.63954 34148 ft 461 kts 30°
2026-04-24 19:16 46.56703 7.68716 34147 ft 461 kts 30°
2026-04-24 19:17 46.62197 7.73533 34146 ft 461 kts 32°
2026-04-24 19:17 46.67637 7.78450 34145 ft 461 kts 32°
2026-04-24 19:18 46.73080 7.83398 34143 ft 461 kts 32°
2026-04-24 19:18 46.78531 7.88354 34143 ft 462 kts 32°
2026-04-24 19:19 46.83977 7.93325 34142 ft 462 kts 32°
2026-04-24 19:19 46.89424 7.98307 34140 ft 462 kts 32°
2026-04-24 19:20 46.94868 8.03299 34162 ft 462 kts 32°
2026-04-24 19:20 47.00315 8.08309 34170 ft 462 kts 32°
2026-04-24 19:21 47.05759 8.13324 34149 ft 462 kts 32°
2026-04-24 19:21 47.11198 8.18349 34151 ft 463 kts 32°
2026-04-24 19:22 47.16659 8.23403 34145 ft 464 kts 32°
2026-04-24 19:22 47.22108 8.28465 34147 ft 463 kts 32°
2026-04-24 19:23 47.27529 8.33505 34146 ft 460 kts 32°
2026-04-24 19:23 47.32939 8.38553 34146 ft 460 kts 32°
2026-04-24 19:24 47.38347 8.43608 34141 ft 461 kts 32°
2026-04-24 19:24 47.43752 8.48689 34141 ft 461 kts 32°
2026-04-24 19:25 47.49151 8.53819 34140 ft 461 kts 32°
2026-04-24 19:25 47.54558 8.58935 34145 ft 462 kts 32°
2026-04-24 19:26 47.59973 8.64028 34152 ft 462 kts 32°
2026-04-24 19:26 47.65379 8.69162 34155 ft 461 kts 32°
2026-04-24 19:27 47.70787 8.74288 34167 ft 462 kts 31°
2026-04-24 19:27 47.76231 8.79397 34165 ft 463 kts 32°
2026-04-24 19:28 47.81651 8.84553 34162 ft 463 kts 32°
2026-04-24 19:28 47.87055 8.89752 34171 ft 463 kts 32°
2026-04-24 19:29 47.92554 8.94680 34177 ft 459 kts 20°
2026-04-24 19:29 47.95618 8.95930 34179 ft 457 kts
2026-04-24 19:30 48.01899 8.97447 34192 ft 458 kts
2026-04-24 19:30 48.08168 8.99042 34195 ft 458 kts
2026-04-24 19:31 48.14446 9.00713 34182 ft 458 kts
2026-04-24 19:31 48.20725 9.02385 34170 ft 458 kts
2026-04-24 19:32 48.26964 9.04070 34166 ft 458 kts
2026-04-24 19:32 48.33283 9.05780 34163 ft 458 kts
2026-04-24 19:33 48.39556 9.07475 34153 ft 458 kts
2026-04-24 19:33 48.45820 9.09173 34147 ft 458 kts
2026-04-24 19:34 48.52067 9.10872 34174 ft 460 kts
2026-04-24 19:34 48.58362 9.12586 34165 ft 460 kts
2026-04-24 19:35 48.64670 9.14314 34167 ft 460 kts
2026-04-24 19:35 48.70971 9.16036 34164 ft 460 kts
2026-04-24 19:36 48.77272 9.17766 34171 ft 460 kts
2026-04-24 19:36 48.83575 9.19506 34166 ft 460 kts
2026-04-24 19:37 48.89867 9.21245 34162 ft 460 kts
2026-04-24 19:37 48.96158 9.22986 34162 ft 459 kts
2026-04-24 19:38 49.02441 9.24734 34151 ft 459 kts
2026-04-24 19:38 49.08722 9.26479 34145 ft 459 kts
2026-04-24 19:39 49.15011 9.28235 34143 ft 459 kts
2026-04-24 19:39 49.21279 9.29994 34148 ft 458 kts
2026-04-24 19:40 49.27553 9.31756 34153 ft 458 kts
2026-04-24 19:40 49.33828 9.33514 34151 ft 458 kts
2026-04-24 19:41 49.40092 9.35280 34158 ft 458 kts
2026-04-24 19:41 49.46368 9.37053 34153 ft 458 kts
2026-04-24 19:42 49.52640 9.38831 34153 ft 458 kts
2026-04-24 19:42 49.58910 9.40616 34169 ft 458 kts
2026-04-24 19:43 49.65200 9.41996 34161 ft 455 kts
2026-04-24 19:43 49.71498 9.42987 34170 ft 455 kts
2026-04-24 19:44 49.77789 9.43985 34172 ft 455 kts
2026-04-24 19:44 49.84047 9.44986 34179 ft 455 kts
2026-04-24 19:45 49.90331 9.45997 34166 ft 454 kts
2026-04-24 19:45 49.95594 9.46841 34163 ft 454 kts
2026-04-24 19:46 50.01888 9.47858 34175 ft 454 kts
2026-04-24 19:46 50.08175 9.48880 34177 ft 454 kts
2026-04-24 19:47 50.14459 9.49991 34176 ft 455 kts
2026-04-24 19:47 50.20740 9.51112 34172 ft 454 kts
2026-04-24 19:48 50.26981 9.52224 34184 ft 454 kts
2026-04-24 19:48 50.36404 9.53883 34177 ft 454 kts
2026-04-24 19:49 50.48966 9.56133 34202 ft 455 kts
2026-04-24 19:50 50.61526 9.58385 34181 ft 454 kts
2026-04-24 19:51 50.70949 9.60079 34177 ft 454 kts
2026-04-24 19:52 50.80368 9.61782 34173 ft 454 kts
2026-04-24 19:52 50.86627 9.62922 34174 ft 454 kts
2026-04-24 19:53 50.92927 9.64066 34180 ft 454 kts
2026-04-24 19:54 51.02345 9.65784 34177 ft 454 kts
2026-04-24 19:54 51.08619 9.66932 34175 ft 454 kts
2026-04-24 19:55 51.13830 9.67885 34175 ft 454 kts
2026-04-24 19:55 51.21161 9.69235 34182 ft 453 kts
2026-04-24 19:56 51.27377 9.70242 34178 ft 452 kts 359°
2026-04-24 19:56 51.33634 9.71232 34176 ft 452 kts 360°
2026-04-24 19:57 51.39896 9.72249 34173 ft 452 kts 360°
2026-04-24 19:57 51.46156 9.73272 34184 ft 452 kts 359°
2026-04-24 19:58 51.52415 9.74403 34176 ft 453 kts
2026-04-24 19:58 51.58717 9.75621 34159 ft 453 kts
2026-04-24 19:59 51.64972 9.76806 34190 ft 452 kts
2026-04-24 19:59 51.71215 9.77993 34179 ft 452 kts
2026-04-24 20:00 51.77457 9.79178 34175 ft 452 kts
2026-04-24 20:00 51.83696 9.80374 34170 ft 451 kts
2026-04-24 20:01 51.89930 9.81567 34188 ft 451 kts
2026-04-24 20:01 51.96154 9.82778 34171 ft 450 kts
2026-04-24 20:02 52.01330 9.83772 34172 ft 450 kts
2026-04-24 20:02 52.05436 9.84579 33635 ft 449 kts
2026-04-24 20:02 52.08582 9.85196 33191 ft 450 kts
2026-04-24 20:02 52.11654 9.85797 32815 ft 452 kts
2026-04-24 20:03 52.14779 9.86407 32425 ft 453 kts
2026-04-24 20:03 52.17915 9.87019 32040 ft 455 kts
2026-04-24 20:03 52.21064 9.87635 31666 ft 456 kts
2026-04-24 20:03 52.24212 9.88276 31291 ft 458 kts
2026-04-24 20:04 52.27348 9.89402 30924 ft 464 kts
2026-04-24 20:04 52.30511 9.90773 30564 ft 465 kts
2026-04-24 20:04 52.33603 9.92134 30197 ft 466 kts
2026-04-24 20:04 52.36740 9.93528 29790 ft 467 kts
2026-04-24 20:05 52.39878 9.94920 29376 ft 468 kts
2026-04-24 20:05 52.43026 9.96306 28963 ft 469 kts
2026-04-24 20:05 52.46176 9.97698 28534 ft 469 kts 10°
2026-04-24 20:05 52.49326 9.99081 28129 ft 470 kts 10°
2026-04-24 20:06 52.52484 10.00480 27736 ft 470 kts 10°
2026-04-24 20:06 52.55641 10.01827 27333 ft 468 kts
2026-04-24 20:06 52.58856 10.02461 26968 ft 464 kts 360°
2026-04-24 20:06 52.62075 10.02845 26454 ft 464 kts 359°
2026-04-24 20:07 52.64260 10.03101 26063 ft 465 kts 359°
2026-04-24 20:07 52.68548 10.03650 25286 ft 468 kts
2026-04-24 20:07 52.71782 10.04094 24690 ft 466 kts
2026-04-24 20:07 52.74997 10.04542 24109 ft 462 kts
2026-04-24 20:08 52.78196 10.04992 23498 ft 459 kts
2026-04-24 20:08 52.81352 10.05443 22822 ft 454 kts
2026-04-24 20:08 52.84484 10.05893 22174 ft 448 kts
2026-04-24 20:08 52.87559 10.06333 21533 ft 442 kts
2026-04-24 20:09 52.90607 10.06762 20902 ft 437 kts
2026-04-24 20:09 52.93616 10.07188 20286 ft 432 kts
2026-04-24 20:09 52.96607 10.07612 19677 ft 427 kts
2026-04-24 20:09 52.99552 10.08024 19085 ft 423 kts
2026-04-24 20:10 53.02471 10.08437 18507 ft 419 kts
2026-04-24 20:10 53.05356 10.08857 17862 ft 414 kts
2026-04-24 20:10 53.08209 10.09263 17222 ft 409 kts
2026-04-24 20:10 53.11029 10.09665 16601 ft 404 kts
2026-04-24 20:11 53.13821 10.10069 16003 ft 400 kts
2026-04-24 20:11 53.16583 10.10468 15407 ft 396 kts
2026-04-24 20:11 53.19313 10.10882 14809 ft 392 kts
2026-04-24 20:11 53.22011 10.11285 14219 ft 385 kts
2026-04-24 20:12 53.24658 10.11669 13607 ft 378 kts
2026-04-24 20:12 53.27252 10.12041 12963 ft 371 kts
2026-04-24 20:12 53.29802 10.12414 12331 ft 365 kts
2026-04-24 20:12 53.32310 10.12777 11725 ft 359 kts
2026-04-24 20:13 53.34782 10.13139 11125 ft 353 kts
2026-04-24 20:13 53.37202 10.13499 10643 ft 345 kts
2026-04-24 20:13 53.39550 10.13795 10338 ft 331 kts 358°
2026-04-24 20:13 53.41797 10.13641 10076 ft 316 kts 353°
2026-04-24 20:14 53.43920 10.13367 9823 ft 304 kts 353°
2026-04-24 20:14 53.45984 10.13098 9541 ft 291 kts 353°
2026-04-24 20:14 53.47991 10.12837 9275 ft 280 kts 353°
2026-04-24 20:14 53.49898 10.12588 9010 ft 270 kts 353°
2026-04-24 20:15 53.51715 10.12356 8751 ft 261 kts 353°
2026-04-24 20:15 53.53498 10.12139 8490 ft 253 kts 353°
2026-04-24 20:15 53.55223 10.11925 8232 ft 245 kts 353°
2026-04-24 20:15 53.56899 10.11755 7987 ft 238 kts 357°
2026-04-24 20:16 53.58496 10.12357 7697 ft 238 kts 21°
2026-04-24 20:16 53.59838 10.14183 6860 ft 263 kts 44°
2026-04-24 20:16 53.61037 10.16664 6008 ft 281 kts 46°
2026-04-24 20:16 53.62263 10.19283 5400 ft 286 kts 47°
2026-04-24 20:17 53.63495 10.21875 5126 ft 278 kts 46°
2026-04-24 20:17 53.65828 10.26633 4975 ft 247 kts 45°
2026-04-24 20:17 53.66891 10.28787 4964 ft 234 kts 44°
2026-04-24 20:18 53.67582 10.30179 4968 ft 234 kts 44°
2026-04-24 20:18 53.68975 10.32991 4975 ft 234 kts 44°
2026-04-24 20:18 53.70019 10.35096 4974 ft 234 kts 44°
2026-04-24 20:18 53.71066 10.37210 4977 ft 235 kts 44°
2026-04-24 20:19 53.72107 10.39323 4980 ft 234 kts 44°
2026-04-24 20:19 53.73147 10.41432 4976 ft 233 kts 42°
2026-04-24 20:19 53.74433 10.42925 4950 ft 221 kts 13°
2026-04-24 20:19 53.75877 10.43092 4764 ft 201 kts 343°
2026-04-24 20:20 53.77021 10.41959 4519 ft 189 kts 311°
2026-04-24 20:20 53.77524 10.39933 4265 ft 195 kts 278°
2026-04-24 20:20 53.77373 10.37619 4023 ft 200 kts 265°
2026-04-24 20:20 53.77080 10.35310 3777 ft 200 kts 264°
2026-04-24 20:21 53.76781 10.33092 3590 ft 187 kts 264°
2026-04-24 20:21 53.76487 10.31013 3373 ft 178 kts 264°
2026-04-24 20:21 53.76193 10.29024 3128 ft 171 kts 264°
2026-04-24 20:21 53.75914 10.27095 2869 ft 169 kts 264°
2026-04-24 20:22 53.75635 10.25179 2607 ft 168 kts 261°
2026-04-24 20:22 53.75078 10.23405 2490 ft 174 kts 242°
2026-04-24 20:22 53.74331 10.21787 2537 ft 176 kts 238°
2026-04-24 20:22 53.73547 10.20180 2613 ft 179 kts 238°
2026-04-24 20:23 53.72754 10.18564 2626 ft 178 kts 238°
2026-04-24 20:23 53.71964 10.16953 2603 ft 179 kts 238°
2026-04-24 20:23 53.71172 10.15344 2449 ft 177 kts 238°
2026-04-24 20:23 53.70393 10.13758 2225 ft 175 kts 238°
2026-04-24 20:24 53.69882 10.12719 2070 ft 173 kts 238°
2026-04-24 20:24 53.68876 10.10675 1749 ft 164 kts 238°
2026-04-24 20:24 53.68162 10.09246 1510 ft 154 kts 237°
2026-04-24 20:24 53.67519 10.07941 1336 ft 139 kts 238°
2026-04-24 20:25 53.66927 10.06726 1234 ft 130 kts 238°
2026-04-24 20:25 53.66347 10.05544 1029 ft 131 kts 238°
2026-04-24 20:25 53.65776 10.04375 802 ft 127 kts 237°
2026-04-24 20:25 53.65207 10.03209 592 ft 132 kts 236°
2026-04-24 20:26 53.64604 10.01987 417 ft 137 kts 232°
2026-04-24 20:26 53.63996 10.00766 234 ft 135 kts 233°
2026-04-24 20:26 53.63395 9.99551 55 ft 131 kts 234°
2026-04-24 20:26 53.62949 9.98643 50 ft 59 kts 231°
2026-04-24 20:27 53.62809 9.98373 49 ft 15 kts 215°
2026-04-24 20:27 53.62713 9.98397 50 ft 13 kts 137°
2026-04-24 20:27 53.62675 9.98454 52 ft 7 kts 127°
2026-04-24 20:27 53.62684 9.98538 51 ft 9 kts 52°
2026-04-24 20:28 53.62726 9.98627 52 ft 11 kts 51°
2026-04-24 20:28 53.62779 9.98733 52 ft 13 kts 49°
2026-04-24 20:28 53.62839 9.98855 52 ft 14 kts 50°
2026-04-24 20:28 53.62907 9.98991 52 ft 16 kts 50°
2026-04-24 20:29 53.62954 9.99088 52 ft 16 kts 50°
2026-04-24 20:29 53.63036 9.99253 52 ft 13 kts 51°
2026-04-24 20:29 53.63072 9.99336 52 ft 5 kts 56°
2026-04-24 20:29 53.63077 9.99350 52 ft 0 kts 56°
2026-04-24 20:30 53.63082 9.99362 52 ft 3 kts 56°
2026-04-24 20:30 53.63105 9.99417 52 ft 8 kts 55°
2026-04-24 20:31 53.63131 9.99479 52 ft 11 kts 54°
2026-04-24 20:31 53.63183 9.99592 52 ft 11 kts 51°
2026-04-24 20:31 53.63216 9.99660 54 ft 8 kts 50°
2026-04-24 20:31 53.63258 9.99737 54 ft 10 kts 41°
2026-04-24 20:32 53.63314 9.99835 54 ft 13 kts 51°
2026-04-24 20:32 53.63377 9.99959 54 ft 14 kts 49°
2026-04-24 20:32 53.63436 10.00090 54 ft 13 kts 68°
2026-04-24 20:32 53.63447 10.00223 54 ft 7 kts 85°
2026-04-24 20:33 53.63449 10.00273 54 ft 1 kts 86°
2026-04-24 20:33 53.63450 10.00294 54 ft 2 kts 86°
2026-04-24 20:33 53.63450 10.00311 54 ft 0 kts 86°
2026-04-24 20:43 53.63450 10.00307 54 ft 0 kts 86°